,,PA_Meas_PMT16A,,PR_Meas_QMR101_102,,RH_Meas_QMH101,,SR_Meas_QMS101,,TA_Meas_QMH101,,GenWind,,GenWind,
time,status,PA,status,PR,status,RH,status,SR,status,TA,status,DirAvg,status,SpdAvg,
2010-08-24, 00:00:04,VALID,916.691,VALID,0,VALID,96.5277,VALID,0,VALID,19.8573,VALID,34,VALID,0.639063,
2010-08-24, 00:01:04,VALID,916.653,VALID,0,VALID,96.5734,VALID,0,VALID,19.8573,VALID,34,VALID,0.879297,
2010-08-24, 00:02:04,VALID,916.646,VALID,0,VALID,96.5658,VALID,0,VALID,19.8978,VALID,34,VALID,1.11172,
2010-08-24, 00:03:04,VALID,916.647,VALID,0,VALID,96.5048,VALID,0,VALID,19.8588,VALID,34,VALID,0.472656,
2010-08-24, 00:04:04,VALID,916.598,VALID,0,VALID,96.5658,VALID,0,VALID,19.8768,VALID,34,VALID,1.12188,
2010-08-24, 00:05:04,VALID,916.607,VALID,0,VALID,96.5582,VALID,0,VALID,19.8963,VALID,34,VALID,0.903516,
2010-08-24, 00:06:04,VALID,916.626,VALID,0,VALID,96.4972,VALID,0,VALID,19.8768,VALID,34,VALID,0.922656,
2010-08-24, 00:07:04,VALID,916.647,VALID,0,VALID,96.4667,VALID,0,VALID,19.8963,VALID,34,VALID,0.501562,
2010-08-24, 00:08:04,VALID,916.643,VALID,0,VALID,96.3829,VALID,0,VALID,19.8963,VALID,34,VALID,0.303125,
2010-08-24, 00:09:04,VALID,916.69,VALID,0,VALID,96.3295,VALID,0,VALID,19.8768,VALID,34,VALID,0.480859,
2010-08-24, 00:10:04,VALID,916.677,VALID,0,VALID,96.3066,VALID,0,VALID,19.8768,VALID,34,VALID,0.407813,
2010-08-24, 00:11:04,VALID,916.723,VALID,0,VALID,96.2837,VALID,0,VALID,19.8768,VALID,34,VALID,0.713672,
2010-08-24, 00:12:04,VALID,916.695,VALID,0,VALID,96.2837,VALID,0,VALID,19.8768,VALID,34,VALID,0.794531,
2010-08-24, 00:13:04,VALID,916.72,VALID,0,VALID,96.299,VALID,0,VALID,19.8768,VALID,34,VALID,0.868359,
2010-08-24, 00:14:04,VALID,916.741,VALID,0,VALID,96.2533,VALID,0,VALID,19.8768,VALID,34,VALID,1.00859,
2010-08-24, 00:15:04,VALID,916.749,VALID,0,VALID,96.2304,VALID,0,VALID,19.8558,VALID,34,VALID,0.833984,
2010-08-24, 00:16:04,VALID,916.797,VALID,0,VALID,96.1999,VALID,0.107441,VALID,19.8573,VALID,34,VALID,0.775,
2010-08-24, 00:17:04,VALID,916.767,VALID,0,VALID,96.1694,VALID,0,VALID,19.8573,VALID,34,VALID,0.946094,
2010-08-24, 00:18:04,VALID,916.734,VALID,0,VALID,96.1541,VALID,0,VALID,19.8378,VALID,34,VALID,1.1207,
2010-08-24, 00:19:04,VALID,916.738,VALID,0,VALID,96.1236,VALID,0,VALID,19.8183,VALID,34,VALID,0.821094,
2010-08-24, 00:20:04,VALID,916.731,VALID,0,VALID,96.0779,VALID,0,VALID,19.8183,VALID,34,VALID,0.773438,
2010-08-24, 00:21:04,VALID,916.708,VALID,0,VALID,96.0398,VALID,0,VALID,19.8378,VALID,34,VALID,0.903125,
2010-08-24, 00:22:04,VALID,916.734,VALID,0,VALID,96.0245,VALID,0,VALID,19.8378,VALID,34,VALID,1.03008,
2010-08-24, 00:23:04,VALID,916.684,VALID,0,VALID,95.9636,VALID,0,VALID,19.8183,VALID,34,VALID,0.680078,
2010-08-24, 00:24:04,VALID,916.703,VALID,0,VALID,95.9178,VALID,0,VALID,19.8183,VALID,34,VALID,0.708594,
2010-08-24, 00:25:04,VALID,916.669,VALID,0,VALID,95.834,VALID,0,VALID,19.7973,VALID,34,VALID,0.540234,
2010-08-24, 00:26:04,VALID,916.652,VALID,0,VALID,95.7577,VALID,0,VALID,19.7988,VALID,34,VALID,0.637109,
2010-08-24, 00:27:04,VALID,916.663,VALID,0,VALID,95.7044,VALID,0,VALID,19.8183,VALID,34,VALID,0.863281,
2010-08-24, 00:28:04,VALID,916.62,VALID,0,VALID,95.712,VALID,0,VALID,19.8183,VALID,34,VALID,0.644922,
2010-08-24, 00:29:04,VALID,916.665,VALID,0,VALID,95.7349,VALID,0,VALID,19.8393,VALID,34,VALID,0.785547,
2010-08-24, 00:30:04,VALID,916.625,VALID,0,VALID,95.8035,VALID,0,VALID,19.8183,VALID,34,VALID,0.783984,
2010-08-24, 00:31:04,VALID,916.621,VALID,0,VALID,95.8111,VALID,0,VALID,19.7793,VALID,34,VALID,0.662109,
2010-08-24, 00:32:04,VALID,916.615,VALID,0,VALID,95.8416,VALID,0,VALID,19.7793,VALID,34,VALID,0.796094,
2010-08-24, 00:33:04,VALID,916.628,VALID,0,VALID,95.9788,VALID,0,VALID,19.7988,VALID,34,VALID,0.823438,
2010-08-24, 00:34:04,VALID,916.645,VALID,0,VALID,95.9712,VALID,0,VALID,19.7793,VALID,34,VALID,0.510156,
2010-08-24, 00:35:04,VALID,916.631,VALID,0,VALID,96.0703,VALID,0,VALID,19.7988,VALID,34,VALID,0.667578,
2010-08-24, 00:36:04,VALID,916.634,VALID,0,VALID,96.1541,VALID,0.107441,VALID,19.8183,VALID,34,VALID,0.827734,
2010-08-24, 00:37:04,VALID,916.663,VALID,0,VALID,96.1999,VALID,0,VALID,19.8183,VALID,35,VALID,0.621094,
2010-08-24, 00:38:04,VALID,916.633,VALID,0,VALID,96.2609,VALID,0,VALID,19.8378,VALID,35,VALID,0.836328,
2010-08-24, 00:39:04,VALID,916.681,VALID,0,VALID,96.2761,VALID,0,VALID,19.8768,VALID,35,VALID,0.746484,
2010-08-24, 00:40:04,VALID,916.64,VALID,0,VALID,96.2837,VALID,0,VALID,19.8573,VALID,35,VALID,0.633984,
2010-08-24, 00:41:04,VALID,916.626,VALID,0,VALID,96.2533,VALID,0,VALID,19.8573,VALID,35,VALID,0.891797,
2010-08-24, 00:42:04,VALID,916.592,VALID,0,VALID,96.299,VALID,0,VALID,19.8768,VALID,35,VALID,1.45,
2010-08-24, 00:43:04,VALID,916.566,VALID,0,VALID,96.1236,VALID,0,VALID,19.8183,VALID,35,VALID,0.867578,
2010-08-24, 00:44:04,VALID,916.592,VALID,0,VALID,96.1084,VALID,0,VALID,19.8183,VALID,36,VALID,1.14805,
2010-08-24, 00:45:04,VALID,916.599,VALID,0,VALID,96.0932,VALID,0,VALID,19.7988,VALID,36,VALID,0.926953,
2010-08-24, 00:46:04,VALID,916.55,VALID,0,VALID,96.0855,VALID,0,VALID,19.8183,VALID,36,VALID,0.855859,
2010-08-24, 00:47:04,VALID,916.541,VALID,0,VALID,96.0855,VALID,0,VALID,19.8183,VALID,36,VALID,1.2082,
2010-08-24, 00:48:04,VALID,916.567,VALID,0,VALID,95.9941,VALID,0,VALID,19.7598,VALID,36,VALID,1.05586,
2010-08-24, 00:49:04,VALID,916.593,VALID,0,VALID,96.0627,VALID,0,VALID,19.8183,VALID,36,VALID,1.43828,
2010-08-24, 00:50:04,VALID,916.51,VALID,0,VALID,95.9864,VALID,0,VALID,19.8183,VALID,36,VALID,0.95625,
2010-08-24, 00:51:04,VALID,916.515,VALID,0,VALID,95.8797,VALID,0,VALID,19.8003,VALID,36,VALID,1.3918,
2010-08-24, 00:52:04,VALID,916.506,VALID,0,VALID,95.8568,VALID,0,VALID,19.7793,VALID,36,VALID,1.19141,
2010-08-24, 00:53:04,VALID,916.498,VALID,0,VALID,95.8797,VALID,0,VALID,19.8183,VALID,129,VALID,1.49766,
2010-08-24, 00:54:04,VALID,916.498,VALID,0,VALID,95.8035,VALID,0,VALID,19.7793,VALID,125,VALID,1.10195,
2010-08-24, 00:55:04,VALID,916.496,VALID,0,VALID,95.7654,VALID,0,VALID,19.7793,VALID,125,VALID,1.10547,
2010-08-24, 00:56:04,VALID,916.54,VALID,0,VALID,95.7044,VALID,0,VALID,19.7598,VALID,125,VALID,1.18516,
2010-08-24, 00:57:04,VALID,916.517,VALID,0,VALID,95.5976,VALID,0,VALID,19.7403,VALID,125,VALID,0.826172,
2010-08-24, 00:58:04,VALID,916.476,VALID,0,VALID,95.6129,VALID,0,VALID,19.7598,VALID,125,VALID,1.05313,
2010-08-24, 00:59:04,VALID,916.46,VALID,0,VALID,95.6129,VALID,0,VALID,19.7598,VALID,125,VALID,1.25156,
2010-08-24, 01:00:04,VALID,916.435,VALID,0,VALID,95.5367,VALID,0,VALID,19.7403,VALID,125,VALID,0.987891,
2010-08-24, 01:01:04,VALID,916.426,VALID,0,VALID,95.4985,VALID,0,VALID,19.7403,VALID,125,VALID,0.718359,
2010-08-24, 01:02:04,VALID,916.424,VALID,0,VALID,95.3613,VALID,0,VALID,19.7013,VALID,125,VALID,0.716406,
2010-08-24, 01:03:04,VALID,916.404,VALID,0,VALID,95.3156,VALID,0,VALID,19.6818,VALID,125,VALID,0.892578,
2010-08-24, 01:04:04,VALID,916.363,VALID,0,VALID,95.3156,VALID,0,VALID,19.6428,VALID,125,VALID,1.17773,
2010-08-24, 01:05:04,VALID,916.326,VALID,0,VALID,95.2546,VALID,0,VALID,19.6038,VALID,125,VALID,1.15664,
2010-08-24, 01:06:04,VALID,916.292,VALID,0,VALID,95.3918,VALID,0,VALID,19.6233,VALID,125,VALID,1.08242,
2010-08-24, 01:07:04,VALID,916.285,VALID,0,VALID,95.3384,VALID,0,VALID,19.6038,VALID,125,VALID,0.844531,
2010-08-24, 01:08:04,VALID,916.252,VALID,0,VALID,95.4223,VALID,0,VALID,19.5843,VALID,125,VALID,0.829297,
2010-08-24, 01:09:04,VALID,916.269,VALID,0,VALID,95.1783,VALID,0,VALID,19.5258,VALID,125,VALID,0.542578,
2010-08-24, 01:10:04,VALID,916.213,VALID,0,VALID,95.2927,VALID,0,VALID,19.5258,VALID,125,VALID,0.50625,
2010-08-24, 01:11:04,VALID,916.235,VALID,0,VALID,95.3842,VALID,0,VALID,19.5063,VALID,125,VALID,0.496875,
2010-08-24, 01:12:04,VALID,916.191,VALID,0,VALID,95.6053,VALID,0,VALID,19.5273,VALID,125,VALID,1.00117,
2010-08-24, 01:13:04,VALID,916.144,VALID,0,VALID,95.7958,VALID,0,VALID,19.5663,VALID,125,VALID,1.41836,
2010-08-24, 01:14:04,VALID,916.079,VALID,0,VALID,95.9102,VALID,0,VALID,19.5648,VALID,125,VALID,1.40313,
2010-08-24, 01:15:04,VALID,916.045,VALID,0,VALID,95.8721,VALID,0,VALID,19.5843,VALID,125,VALID,1.20117,
2010-08-24, 01:16:04,VALID,916.053,VALID,0,VALID,95.8721,VALID,0,VALID,19.6443,VALID,125,VALID,1.24336,
2010-08-24, 01:17:04,VALID,916.057,VALID,0,VALID,95.6586,VALID,0,VALID,19.5843,VALID,125,VALID,0.808203,
2010-08-24, 01:18:04,VALID,916.041,VALID,0,VALID,95.5824,VALID,0,VALID,19.6038,VALID,125,VALID,0.462891,
2010-08-24, 01:19:04,VALID,916.013,VALID,0,VALID,95.5671,VALID,0,VALID,19.6233,VALID,125,VALID,0.420703,
2010-08-24, 01:20:04,VALID,915.967,VALID,0,VALID,95.5214,VALID,0,VALID,19.6233,VALID,125,VALID,0.423828,
2010-08-24, 01:21:04,VALID,915.957,VALID,0,VALID,95.468,VALID,0,VALID,19.6233,VALID,125,VALID,0.626953,
2010-08-24, 01:22:04,VALID,915.936,VALID,0,VALID,95.1402,VALID,0,VALID,19.5843,VALID,125,VALID,0.551562,
2010-08-24, 01:23:04,VALID,915.921,VALID,0,VALID,94.2788,VALID,0.107441,VALID,19.4673,VALID,125,VALID,0.730859,
2010-08-24, 01:24:04,VALID,915.94,VALID,0,VALID,93.4326,VALID,0,VALID,19.3308,VALID,125,VALID,0.986328,
2010-08-24, 01:25:04,VALID,915.956,VALID,0,VALID,94.8353,VALID,0,VALID,19.3113,VALID,125,VALID,0.983594,
2010-08-24, 01:26:04,VALID,915.969,VALID,0,VALID,95.5062,VALID,0,VALID,19.3503,VALID,125,VALID,0.938281,
2010-08-24, 01:27:04,VALID,915.953,VALID,0,VALID,95.7806,VALID,0,VALID,19.3908,VALID,125,VALID,1.10898,
2010-08-24, 01:28:04,VALID,915.943,VALID,0,VALID,95.7882,VALID,0,VALID,19.3698,VALID,125,VALID,1.12617,
2010-08-24, 01:29:04,VALID,915.982,VALID,0,VALID,95.7958,VALID,0,VALID,19.4088,VALID,125,VALID,1.21523,
2010-08-24, 01:30:04,VALID,916.016,VALID,0,VALID,95.8035,VALID,0,VALID,19.4673,VALID,125,VALID,0.980469,
2010-08-24, 01:31:04,VALID,916.043,VALID,0,VALID,95.5748,VALID,0,VALID,19.5078,VALID,125,VALID,0.901563,
2010-08-24, 01:32:04,VALID,916.049,VALID,0,VALID,95.3384,VALID,0,VALID,19.4868,VALID,125,VALID,0.853125,
2010-08-24, 01:33:04,VALID,916.045,VALID,0,VALID,95.1479,VALID,0,VALID,19.4478,VALID,125,VALID,0.687109,
2010-08-24, 01:34:04,VALID,916.096,VALID,0,VALID,95.0183,VALID,0,VALID,19.4283,VALID,125,VALID,0.939062,
2010-08-24, 01:35:04,VALID,916.045,VALID,0,VALID,95.1326,VALID,0,VALID,19.4283,VALID,125,VALID,1.28125,
2010-08-24, 01:36:04,VALID,916.015,VALID,0,VALID,95.2546,VALID,0,VALID,19.4478,VALID,125,VALID,1.05078,
2010-08-24, 01:37:04,VALID,916.022,VALID,0,VALID,95.1021,VALID,0,VALID,19.4283,VALID,125,VALID,0.245312,
2010-08-24, 01:38:04,VALID,915.986,VALID,0,VALID,95.1402,VALID,0,VALID,19.4478,VALID,125,VALID,0.620703,
2010-08-24, 01:39:04,VALID,915.967,VALID,0,VALID,95.3156,VALID,0.107441,VALID,19.5078,VALID,125,VALID,0.5375,
2010-08-24, 01:40:04,VALID,915.953,VALID,0,VALID,95.4071,VALID,0,VALID,19.4868,VALID,125,VALID,0.283203,
2010-08-24, 01:41:04,VALID,915.94,VALID,0,VALID,95.4147,VALID,0,VALID,19.4868,VALID,125,VALID,0.319531,
2010-08-24, 01:42:04,VALID,915.957,VALID,0,VALID,95.3232,VALID,0,VALID,19.4883,VALID,125,VALID,0.282031,
2010-08-24, 01:43:04,VALID,915.892,VALID,0,VALID,95.2622,VALID,0,VALID,19.4688,VALID,125,VALID,0.476563,
2010-08-24, 01:44:04,VALID,915.906,VALID,0,VALID,95.2851,VALID,0,VALID,19.4688,VALID,125,VALID,0.494531,
2010-08-24, 01:45:04,VALID,915.901,VALID,0,VALID,95.4528,VALID,0.107441,VALID,19.4673,VALID,125,VALID,0.505078,
2010-08-24, 01:46:04,VALID,915.883,VALID,0,VALID,95.529,VALID,0,VALID,19.4883,VALID,125,VALID,0.519141,
2010-08-24, 01:47:04,VALID,915.857,VALID,0,VALID,95.3613,VALID,0,VALID,19.4493,VALID,125,VALID,0.558594,
2010-08-24, 01:48:04,VALID,915.796,VALID,0,VALID,95.2088,VALID,0,VALID,19.3893,VALID,125,VALID,0.733594,
2010-08-24, 01:49:04,VALID,915.806,VALID,0,VALID,95.3766,VALID,0,VALID,19.4283,VALID,125,VALID,0.824609,
2010-08-24, 01:50:04,VALID,915.764,VALID,0,VALID,95.4375,VALID,0,VALID,19.4088,VALID,125,VALID,1.14531,
2010-08-24, 01:51:04,VALID,915.775,VALID,0,VALID,95.529,VALID,0,VALID,19.4103,VALID,125,VALID,1.1043,
2010-08-24, 01:52:04,VALID,915.765,VALID,0,VALID,95.529,VALID,0,VALID,19.3908,VALID,125,VALID,1.275,
2010-08-24, 01:53:04,VALID,915.765,VALID,0,VALID,95.5595,VALID,0.107441,VALID,19.3698,VALID,125,VALID,1.15391,
2010-08-24, 01:54:04,VALID,915.774,VALID,0,VALID,95.5595,VALID,0.107441,VALID,19.3503,VALID,125,VALID,0.953516,
2010-08-24, 01:55:04,VALID,915.769,VALID,0,VALID,95.59,VALID,0,VALID,19.3503,VALID,125,VALID,1.08203,
2010-08-24, 01:56:04,VALID,915.75,VALID,0,VALID,95.6662,VALID,0.107441,VALID,19.3518,VALID,125,VALID,1.33359,
2010-08-24, 01:57:04,VALID,915.759,VALID,0,VALID,95.7425,VALID,0,VALID,19.3323,VALID,125,VALID,1.40937,
2010-08-24, 01:58:04,VALID,915.755,VALID,0,VALID,95.8035,VALID,0.107441,VALID,19.3113,VALID,125,VALID,1.34883,
2010-08-24, 01:59:04,VALID,915.761,VALID,0,VALID,95.773,VALID,0,VALID,19.2933,VALID,125,VALID,1.21445,
2010-08-24, 02:00:04,VALID,915.795,VALID,0,VALID,95.8416,VALID,0,VALID,19.2738,VALID,125,VALID,1.38164,
2010-08-24, 02:01:04,VALID,915.771,VALID,0,VALID,95.9331,VALID,0,VALID,19.2348,VALID,123,VALID,1.33281,
2010-08-24, 02:02:04,VALID,915.764,VALID,0,VALID,95.9559,VALID,0,VALID,19.1958,VALID,109,VALID,1.14141,
2010-08-24, 02:03:04,VALID,915.775,VALID,0,VALID,96.0703,VALID,0,VALID,19.1944,VALID,109,VALID,0.9625,
2010-08-24, 02:04:04,VALID,915.767,VALID,0,VALID,96.1465,VALID,0,VALID,19.2139,VALID,109,VALID,1.17969,
2010-08-24, 02:05:04,VALID,915.752,VALID,0,VALID,96.2228,VALID,0,VALID,19.2348,VALID,109,VALID,1.09687,
2010-08-24, 02:06:04,VALID,915.744,VALID,0,VALID,96.2533,VALID,0,VALID,19.2153,VALID,109,VALID,1.11289,
2010-08-24, 02:07:04,VALID,915.731,VALID,0,VALID,96.2837,VALID,0,VALID,19.1749,VALID,109,VALID,1.36836,
2010-08-24, 02:08:04,VALID,915.723,VALID,0,VALID,96.3142,VALID,0,VALID,19.1958,VALID,109,VALID,1.35,
2010-08-24, 02:09:04,VALID,915.709,VALID,0,VALID,96.3447,VALID,0,VALID,19.1763,VALID,109,VALID,1.35469,
2010-08-24, 02:10:04,VALID,915.736,VALID,0,VALID,96.3524,VALID,0,VALID,19.1568,VALID,109,VALID,1.28711,
2010-08-24, 02:11:04,VALID,915.717,VALID,0,VALID,96.3829,VALID,0,VALID,19.1359,VALID,109,VALID,1.2168,
2010-08-24, 02:12:04,VALID,915.716,VALID,0,VALID,96.4362,VALID,0,VALID,19.1568,VALID,109,VALID,1.15313,
2010-08-24, 02:13:04,VALID,915.724,VALID,0,VALID,96.4972,VALID,0,VALID,19.1568,VALID,109,VALID,1.00312,
2010-08-24, 02:14:04,VALID,915.672,VALID,0,VALID,96.4896,VALID,0,VALID,19.1568,VALID,109,VALID,1.20117,
2010-08-24, 02:15:04,VALID,915.708,VALID,0,VALID,96.4896,VALID,0,VALID,19.1373,VALID,109,VALID,1.00391,
2010-08-24, 02:16:04,VALID,915.677,VALID,0,VALID,96.4057,VALID,0,VALID,19.0969,VALID,109,VALID,0.962891,
2010-08-24, 02:17:04,VALID,915.687,VALID,0,VALID,96.4362,VALID,0,VALID,19.0969,VALID,109,VALID,1.15586,
2010-08-24, 02:18:04,VALID,915.684,VALID,0,VALID,96.4896,VALID,0,VALID,19.1373,VALID,109,VALID,1.09922,
2010-08-24, 02:19:04,VALID,915.657,VALID,0,VALID,96.421,VALID,0,VALID,19.1164,VALID,109,VALID,1.16875,
2010-08-24, 02:20:04,VALID,915.631,VALID,0,VALID,96.3524,VALID,0,VALID,19.0983,VALID,109,VALID,1.13281,
2010-08-24, 02:21:04,VALID,915.658,VALID,0,VALID,96.3219,VALID,0,VALID,19.0983,VALID,109,VALID,1.26602,
2010-08-24, 02:22:04,VALID,915.628,VALID,0,VALID,96.2609,VALID,0,VALID,19.0788,VALID,109,VALID,1.10859,
2010-08-24, 02:23:04,VALID,915.628,VALID,0,VALID,96.2304,VALID,0,VALID,19.0579,VALID,109,VALID,1.00508,
2010-08-24, 02:24:04,VALID,915.652,VALID,0,VALID,96.2914,VALID,0,VALID,19.0969,VALID,109,VALID,1.0875,
2010-08-24, 02:25:04,VALID,915.662,VALID,0,VALID,96.2228,VALID,0,VALID,19.0774,VALID,115,VALID,0.807813,
2010-08-24, 02:26:04,VALID,915.655,VALID,0,VALID,96.1694,VALID,0,VALID,19.0969,VALID,135,VALID,0.387109,
2010-08-24, 02:27:04,VALID,915.648,VALID,0,VALID,96.1389,VALID,0,VALID,19.0969,VALID,150,VALID,0.805859,
2010-08-24, 02:28:04,VALID,915.619,VALID,0,VALID,96.1313,VALID,0,VALID,19.0774,VALID,150,VALID,1.11406,
2010-08-24, 02:29:04,VALID,915.594,VALID,0,VALID,96.1008,VALID,0,VALID,19.0593,VALID,150,VALID,1.10156,
2010-08-24, 02:30:04,VALID,915.59,VALID,0,VALID,96.1694,VALID,0,VALID,19.0189,VALID,150,VALID,1.07305,
2010-08-24, 02:31:04,VALID,915.567,VALID,0,VALID,96.2075,VALID,0,VALID,19.0008,VALID,150,VALID,0.951953,
2010-08-24, 02:32:04,VALID,915.577,VALID,0,VALID,96.3295,VALID,0,VALID,18.9994,VALID,150,VALID,0.759766,
2010-08-24, 02:33:04,VALID,915.55,VALID,0,VALID,96.421,VALID,0,VALID,19.0008,VALID,150,VALID,0.85,
2010-08-24, 02:34:04,VALID,915.526,VALID,0,VALID,96.4896,VALID,0,VALID,18.9994,VALID,150,VALID,0.743359,
2010-08-24, 02:35:04,VALID,915.514,VALID,0,VALID,96.5582,VALID,0,VALID,19.0384,VALID,123,VALID,0.624219,
2010-08-24, 02:36:04,VALID,915.528,VALID,0,VALID,96.5201,VALID,0.107441,VALID,19.0189,VALID,123,VALID,1.0207,
2010-08-24, 02:37:04,VALID,915.496,VALID,0,VALID,96.5887,VALID,0,VALID,19.0384,VALID,123,VALID,1.00312,
2010-08-24, 02:38:04,VALID,915.476,VALID,0,VALID,96.6115,VALID,0.107441,VALID,19.0969,VALID,123,VALID,1.09063,
2010-08-24, 02:39:04,VALID,915.464,VALID,0,VALID,96.5353,VALID,0,VALID,19.0969,VALID,123,VALID,1.14375,
2010-08-24, 02:40:04,VALID,915.481,VALID,0,VALID,96.4133,VALID,0,VALID,19.1164,VALID,123,VALID,0.967578,
2010-08-24, 02:41:04,VALID,915.512,VALID,0,VALID,96.3676,VALID,0,VALID,19.0969,VALID,123,VALID,0.938672,
2010-08-24, 02:42:04,VALID,915.519,VALID,0,VALID,96.3142,VALID,0,VALID,19.1373,VALID,123,VALID,1.05313,
2010-08-24, 02:43:04,VALID,915.515,VALID,0,VALID,96.2151,VALID,0,VALID,19.1359,VALID,123,VALID,1.03555,
2010-08-24, 02:44:04,VALID,915.48,VALID,0,VALID,96.1236,VALID,0,VALID,19.1568,VALID,123,VALID,1.27539,
2010-08-24, 02:45:04,VALID,915.52,VALID,0,VALID,96.0398,VALID,0,VALID,19.1359,VALID,123,VALID,1.15977,
2010-08-24, 02:46:04,VALID,915.528,VALID,0,VALID,95.895,VALID,0,VALID,19.0969,VALID,123,VALID,1.1,
2010-08-24, 02:47:04,VALID,915.513,VALID,0,VALID,95.773,VALID,0,VALID,19.0983,VALID,123,VALID,0.948828,
2010-08-24, 02:48:04,VALID,915.536,VALID,0,VALID,95.6662,VALID,0,VALID,19.0579,VALID,123,VALID,1.07344,
2010-08-24, 02:49:04,VALID,915.56,VALID,0,VALID,95.6815,VALID,0,VALID,19.0384,VALID,123,VALID,1.18945,
2010-08-24, 02:50:04,VALID,915.549,VALID,0,VALID,95.7196,VALID,0,VALID,19.0384,VALID,123,VALID,1.07109,
2010-08-24, 02:51:04,VALID,915.6,VALID,0,VALID,95.8111,VALID,0,VALID,19.0189,VALID,123,VALID,1.02188,
2010-08-24, 02:52:04,VALID,915.61,VALID,0,VALID,95.834,VALID,0,VALID,18.9994,VALID,123,VALID,0.969531,
2010-08-24, 02:53:04,VALID,915.627,VALID,0,VALID,95.8568,VALID,0,VALID,18.9799,VALID,123,VALID,1.07148,
2010-08-24, 02:54:04,VALID,915.602,VALID,0,VALID,95.8263,VALID,0,VALID,18.9814,VALID,123,VALID,1.09609,
2010-08-24, 02:55:04,VALID,915.6,VALID,0,VALID,95.9331,VALID,0,VALID,18.9604,VALID,123,VALID,1.12812,
2010-08-24, 02:56:04,VALID,915.598,VALID,0,VALID,95.9026,VALID,0,VALID,18.9409,VALID,123,VALID,0.900781,
2010-08-24, 02:57:04,VALID,915.55,VALID,0,VALID,95.9331,VALID,0,VALID,18.9214,VALID,123,VALID,0.862109,
2010-08-24, 02:58:04,VALID,915.553,VALID,0,VALID,96.0093,VALID,0,VALID,18.9424,VALID,123,VALID,0.728516,
2010-08-24, 02:59:04,VALID,915.522,VALID,0,VALID,96.0703,VALID,0,VALID,18.9214,VALID,123,VALID,0.913281,
2010-08-24, 03:00:04,VALID,915.55,VALID,0,VALID,96.116,VALID,0,VALID,18.9019,VALID,123,VALID,1.07422,
2010-08-24, 03:01:04,VALID,915.522,VALID,0,VALID,96.1694,VALID,0,VALID,18.9214,VALID,123,VALID,0.935938,
2010-08-24, 03:02:04,VALID,915.5,VALID,0,VALID,96.1465,VALID,0,VALID,18.9019,VALID,123,VALID,0.870703,
2010-08-24, 03:03:04,VALID,915.462,VALID,0,VALID,96.1465,VALID,0,VALID,18.8824,VALID,123,VALID,0.686719,
2010-08-24, 03:04:04,VALID,915.491,VALID,0,VALID,96.1084,VALID,0,VALID,18.8629,VALID,123,VALID,0.910937,
2010-08-24, 03:05:04,VALID,915.456,VALID,0,VALID,96.1313,VALID,0,VALID,18.8434,VALID,123,VALID,1.175,
2010-08-24, 03:06:04,VALID,915.465,VALID,0,VALID,96.2304,VALID,0,VALID,18.8434,VALID,123,VALID,1.28906,
2010-08-24, 03:07:04,VALID,915.452,VALID,0,VALID,96.3142,VALID,0,VALID,18.9034,VALID,123,VALID,1.43633,
2010-08-24, 03:08:04,VALID,915.435,VALID,0,VALID,96.3295,VALID,0,VALID,18.8839,VALID,123,VALID,1.34063,
2010-08-24, 03:09:04,VALID,915.435,VALID,0,VALID,96.3905,VALID,0,VALID,18.9034,VALID,108,VALID,1.84023,
2010-08-24, 03:10:04,VALID,915.458,VALID,0,VALID,96.5277,VALID,0,VALID,18.9604,VALID,85,VALID,1.44883,
2010-08-24, 03:11:04,VALID,915.427,VALID,0,VALID,96.5811,VALID,0,VALID,19.0593,VALID,113,VALID,1.33047,
2010-08-24, 03:12:04,VALID,915.451,VALID,0,VALID,96.5048,VALID,0,VALID,19.1164,VALID,114,VALID,1.51641,
2010-08-24, 03:13:04,VALID,915.459,VALID,0,VALID,96.36,VALID,0,VALID,19.1359,VALID,123,VALID,1.41875,
2010-08-24, 03:14:04,VALID,915.524,VALID,0,VALID,96.1541,VALID,0,VALID,19.1373,VALID,120,VALID,1.28008,
2010-08-24, 03:15:04,VALID,915.51,VALID,0,VALID,95.9483,VALID,0.107441,VALID,19.0983,VALID,149,VALID,0.907812,
2010-08-24, 03:16:04,VALID,915.518,VALID,0,VALID,95.6967,VALID,0,VALID,19.0384,VALID,138,VALID,1.20313,
2010-08-24, 03:17:04,VALID,915.487,VALID,0,VALID,95.6662,VALID,0,VALID,19.0398,VALID,130,VALID,1.26641,
2010-08-24, 03:18:04,VALID,915.471,VALID,0,VALID,95.651,VALID,0,VALID,19.0008,VALID,129,VALID,1.50391,
2010-08-24, 03:19:04,VALID,915.461,VALID,0,VALID,95.6357,VALID,0,VALID,18.9409,VALID,127,VALID,1.3957,
2010-08-24, 03:20:04,VALID,915.444,VALID,0,VALID,95.834,VALID,0,VALID,18.9409,VALID,127,VALID,1.50898,
2010-08-24, 03:21:04,VALID,915.449,VALID,0,VALID,95.9864,VALID,0,VALID,19.0008,VALID,127,VALID,1.27344,
2010-08-24, 03:22:04,VALID,915.442,VALID,0,VALID,95.9941,VALID,0,VALID,18.9994,VALID,127,VALID,1.33477,
2010-08-24, 03:23:04,VALID,915.418,VALID,0,VALID,96.0093,VALID,0,VALID,19.0203,VALID,127,VALID,1.19531,
2010-08-24, 03:24:04,VALID,915.424,VALID,0,VALID,96.0093,VALID,0,VALID,19.0593,VALID,127,VALID,1.36563,
2010-08-24, 03:25:04,VALID,915.407,VALID,0,VALID,95.9864,VALID,0,VALID,19.0983,VALID,127,VALID,1.01523,
2010-08-24, 03:26:04,VALID,915.431,VALID,0,VALID,95.8645,VALID,0.107441,VALID,19.1164,VALID,127,VALID,0.818359,
2010-08-24, 03:27:04,VALID,915.41,VALID,0,VALID,95.7272,VALID,0,VALID,19.1373,VALID,127,VALID,0.412891,
2010-08-24, 03:28:04,VALID,915.408,VALID,0,VALID,95.5748,VALID,0,VALID,19.0969,VALID,127,VALID,0.0757812,
2010-08-24, 03:29:04,VALID,915.406,VALID,0,VALID,95.3613,VALID,0,VALID,19.0983,VALID,127,VALID,0,
2010-08-24, 03:30:04,VALID,915.403,VALID,0,VALID,94.9573,VALID,0,VALID,19.0384,VALID,127,VALID,0.254297,
2010-08-24, 03:31:04,VALID,915.399,VALID,0,VALID,94.6295,VALID,0,VALID,19.0008,VALID,127,VALID,0.441406,
2010-08-24, 03:32:04,VALID,915.402,VALID,0,VALID,94.5761,VALID,0,VALID,18.9814,VALID,127,VALID,0.487891,
2010-08-24, 03:33:04,VALID,915.394,VALID,0,VALID,94.9192,VALID,0,VALID,18.9619,VALID,127,VALID,0.913281,
2010-08-24, 03:34:04,VALID,915.389,VALID,0,VALID,95.3842,VALID,0,VALID,19.0008,VALID,127,VALID,1.46406,
2010-08-24, 03:35:04,VALID,915.404,VALID,0,VALID,95.3613,VALID,0,VALID,18.9799,VALID,127,VALID,1.44062,
2010-08-24, 03:36:04,VALID,915.391,VALID,0,VALID,95.3461,VALID,0,VALID,19.0398,VALID,127,VALID,1.44687,
2010-08-24, 03:37:04,VALID,915.391,VALID,0,VALID,95.5367,VALID,0,VALID,19.1568,VALID,127,VALID,1.04102,
2010-08-24, 03:38:04,VALID,915.392,VALID,0,VALID,95.2775,VALID,0,VALID,19.1944,VALID,127,VALID,1.21719,
2010-08-24, 03:39:04,VALID,915.389,VALID,0,VALID,94.9115,VALID,0,VALID,19.2139,VALID,127,VALID,1.03281,
2010-08-24, 03:40:04,VALID,915.4,VALID,0,VALID,94.477,VALID,0,VALID,19.2153,VALID,127,VALID,1.25547,
2010-08-24, 03:41:04,VALID,915.353,VALID,0,VALID,94.2864,VALID,0,VALID,19.1749,VALID,127,VALID,1.26719,
2010-08-24, 03:42:04,VALID,915.385,VALID,0,VALID,94.4008,VALID,0.107441,VALID,19.1164,VALID,126,VALID,1.03867,
2010-08-24, 03:43:04,VALID,915.417,VALID,0,VALID,94.4389,VALID,0,VALID,19.0983,VALID,126,VALID,0.734375,
2010-08-24, 03:44:04,VALID,915.398,VALID,0,VALID,94.4922,VALID,0,VALID,19.0593,VALID,126,VALID,1.07383,
2010-08-24, 03:45:04,VALID,915.397,VALID,0,VALID,94.6295,VALID,0.107441,VALID,19.0189,VALID,126,VALID,1.25703,